Weather Roundup
Issued by NWS Chicago, IL

Home | Current Version | Previous Version | Graphics & Text | Print | Product List | Glossary On
Versions: 1 2 3 4 5 6 7 8 9 10 11 12 13 14 15 16 17 18 19 20 21 22 23 24 25 26 27 28 29 30 31 32 33 34 35 36 37 38 39 40 41 42 43 44 45 46 47 48 49 50
000
NZUS59 KLOT 291704
HRRLOT

CHICAGO AREA WEATHER ROUNDUP
NATIONAL WEATHER SERVICE CHICAGO/ROMEOVILLE IL
1200 PM CDT MON MAY 29 2017

NOTE: "FAIR" INDICATES FEW OR NO CLOUDS BELOW 12,000 FEET WITH NO
SIGNIFICANT WEATHER AND/OR OBSTRUCTIONS TO VISIBILITY.

* THESE STATIONS ARE NOT UNDER NWS QUALITY CONTROL. THEY ALSO MAY NOT
  REPORT WEATHER SUCH AS PRECIPITATION OR FOG.

ILZ005-006-012>014-019>023-291800-
NORTHEAST ILLINOIS

CITY           SKY/WX    TMP DP  RH WIND       PRES   REMARKS
OHARE          MOSUNNY   74  46  36 W22G31    29.82R
MIDWAY         MOSUNNY   75  46  35 W22G33    29.83R
AURORA         SUNNY     75  48  38 W17G29    29.85R
LANSING*       MOSUNNY   75  51  43 W16G23    29.85R
JOLIET*        PTSUNNY   76  48  37 W13G22    29.86R
WAUKEGAN       SUNNY     74  44  34 W10G26    29.78R
DUPAGE AIRPORT MOSUNNY   74  49  41 W16G28    29.83R
WHEELING       SUNNY     74  46  36 W18G29    29.81S
KANKAKEE*      MOSUNNY   79  47  32 W18G25    29.87S
MORRIS*        MOSUNNY   74  45  35 W21G26    29.85S
LEWIS AIRPORT* PTSUNNY   75  52  44 W21G26    29.85R
NORTHERLY ISL    N/A     74  41  30 SW15        N/A
$$

WIZ051-052-058>065-066-070>072-291800-
SOUTHEAST WISCONSIN

CITY           SKY/WX    TMP DP  RH WIND       PRES   REMARKS
MILWAUKEE      MOSUNNY   71  43  36 W23G35    29.77R
KENOSHA*       SUNNY     71  46  40 W21G35    29.79R
RACINE*        SUNNY     71  43  36 W20G30    29.79R
WAUKESHA       PTSUNNY   64  45  48 W17G25    29.79R
WEST BEND      PTSUNNY   64  45  48 W21G29    29.76R
$$

INZ001>003-010>013-019-020-291800-
NORTHWEST INDIANA

CITY           SKY/WX    TMP DP  RH WIND       PRES   REMARKS
GARY*          MOSUNNY   77  41  27 W10       29.84S
MICHIGAN CITY* NOT AVBL
RENSSELAER*    NOT AVBL
VALPARAISO     MOSUNNY   78  47  33 W21G28    29.85R
$$

LMZ740>746-291800-
SOUTHERN LAKE MICHIGAN

STATION/POSITION TIME  SKY/WX   TEMP WIND        PRES    VSBY
                                AIR  DIR/SP/G
                 (UTC)          (F)  (DEG/KT/KT) (MB)    (MI)
HARRISON CRIB    1640            73  250/ 24/ 31   N/A
BURNHAM HARBOR   1700            73  310/ 10/ 17   N/A
CALUMET HARBOR   1630            74  230/ 10/ 17 1009.6R
BURNS HARBOR     1640            67  260/ 12/ 15 1010.8S
MICHIGAN CITY    1640            65  240/ 13/ 15   N/A
$$

ABBREVIATIONS USED IN REMARKS
   TC - TEMPERATURE IN CELSIUS
  WCI - WIND CHILL INDEX
   HX - HEAT INDEX
  VSB - VISIBILITY
$$




USA.gov is the U.S. government's official web portal to all federal, state and local government web resources and services.